Location: Great Malvern
(52.1167°N, 2.3167°W)
Time: 16:12:09
(UTC+00:00)

CZ-4C R/B - Pass Details

Date: 18 September 2020
Orbit: 627 x 1375 km, 63.4° (Epoch: 21 October)

Event Time Altitude Azimuth Distance (km) Brightness Sun altitude
Exits shadow 23:01:58 18° 53° (NE) 2,100 4.4 -35.0°
Drops below altitude 10° 23:03:31 10° 49° (NE) 2,669 5.0 -35.0°
Sets 23:06:22 0° 46° (NE) 3,745 5.9 -35.2°
